This is the latest recevied weather packets stored in our database for station/object NE1CU. If no packets are shown the sender has not sent any weather packets the latest 10 day(s).
| Time | Temp. | Humidity | Pressure | Rain* | Wind** | Luminosity | Snow |
|---|---|---|---|---|---|---|---|
| 1778125528 | 15° C | 94% | 1007.7 hPa | 0 mm | - | 0 W/m² | - |
| 1778125227 | 15° C | 94% | 1007.6 hPa | 0 mm | - | 0 W/m² | - |
| 1778124924 | 15° C | 94% | 1007.5 hPa | 0 mm | - | 0 W/m² | - |
| 1778124621 | 15° C | 94% | 1007.5 hPa | 0 mm | - | 0 W/m² | - |
| 1778124318 | 15° C | 94% | 1007.4 hPa | 0 mm | - | 0 W/m² | - |
| 1778124015 | 15° C | 94% | 1007.5 hPa | 0 mm | - | 0 W/m² | - |
| 1778123710 | 15° C | 94% | 1007.8 hPa | 0 mm | - | 0 W/m² | - |
| 1778123408 | 15° C | 94% | 1007.9 hPa | 0 mm | - | 0 W/m² | - |
| 1778123104 | 15° C | 94% | 1007.7 hPa | 0 mm | - | 0 W/m² | - |
| 1778122802 | 15° C | 94% | 1007.8 hPa | 0 mm | - | 0 W/m² | - |
| 1778122499 | 15° C | 94% | 1007.6 hPa | 0 mm | - | 0 W/m² | - |
| 1778122197 | 15° C | 94% | 1007.8 hPa | 1.78 mm | - | 0 W/m² | - |
| 1778121894 | 15° C | 93% | 1007.9 hPa | 3.05 mm | - | 0 W/m² | - |
| 1778121590 | 14.44° C | 93% | 1007.8 hPa | 1.27 mm | - | 0 W/m² | - |
| 1778121287 | 14.44° C | 93% | 1007.6 hPa | 0 mm | - | 0 W/m² | - |
| 1778120984 | 14.44° C | 93% | 1007.4 hPa | 0 mm | - | 0 W/m² | - |
| 1778120681 | 14.44° C | 92% | 1007.6 hPa | 0 mm | - | 0 W/m² | - |
| 1778120376 | 14.44° C | 92% | 1007.7 hPa | 1.78 mm | - | 0 W/m² | - |
| 1778120072 | 14.44° C | 92% | 1007.6 hPa | 1.78 mm | - | 0 W/m² | - |
| 1778119770 | 14.44° C | 92% | 1007.6 hPa | 0 mm | - | 0 W/m² | - |
| 1778119466 | 14.44° C | 92% | 1007.6 hPa | 0 mm | - | 0 W/m² | - |
| 1778119163 | 14.44° C | 91% | 1007.7 hPa | 0 mm | - | 0 W/m² | - |
| 1778118862 | 14.44° C | 91% | 1007.6 hPa | 0 mm | - | 0 W/m² | - |
| 1778118558 | 14.44° C | 91% | 1007.8 hPa | 0 mm | - | 0 W/m² | - |
| 1778118255 | 14.44° C | 91% | 1007.6 hPa | 0 mm | - | 0 W/m² | - |
* Rain latest hour (hover to see other rain measurements)
** Current wind speed in m/s (hover to see current wind gust speed)